Fort Belvoir, VA

11:21 PM EST on December 13, 2019 (GMT -0500)
Davison Army Air Field

Weather History for KDAA - May, 2019

Change the Weather History Date:

Sunday, May 5, 2019

  Actual Average Record
Temperature  
Mean Temperature 62 °F -  
Max Temperature 66 °F 74 °F 89 °F (2000)
Min Temperature 58 °F 49 °F 37 °F (2005)
Degree Days  
Heating Degree Days 3    
Growing Degree Days 12 (Base 50)    
Moisture  
Dew Point 62 °F    
Average Humidity 93    
Maximum Humidity 100    
Minimum Humidity 83    
Precipitation  
Precipitation 1.26 in - - ()
Sea Level Pressure  
Sea Level Pressure 29.72 in    
Wind  
Wind Speed 2 mph (NNE)    
Max Wind Speed 9 mph    
Max Gust Speed -    
Visibility 8 miles    
Events Rain    
Averages and records for this station are not official NWS values.
T = Trace of Precipitation, MM = Missing Value Source: NWS Daily Summary

Daily Weather History Graph

Daily Weather History Graph

Search for Another Location

Airport or City:

Astronomy

May. 05, 2019 Rise Set
Actual Time 6:06 AM EDT 8:04 PM EDT
Civil Twilight 5:37 AM EDT 8:33 PM EDT
Nautical Twilight 5:02 AM EDT 9:09 PM EDT
Astronomical Twilight 4:24 AM EDT 9:47 PM EDT
Moon 6:49 AM EDT (5/5) 8:55 PM EDT (5/5)
Length of Visible Light 14h 55m
Length of Day
13h 57m
New Moon, 1% of the Moon is Illuminated
May 5
New Moon
May 11
First Quarter
May 18
Full
May 26
Last Quarter
Jun 3
New

Hourly Weather History & Observations

Time (EDT) Temp. Dew Point Humidity Pressure Visibility Wind Dir Wind Speed Gust Speed Precip Events Conditions
12:19 AM 66.2 °F 64.4 °F 94% 29.80 in 9.0 mi Calm Calm - N/A Rain Light Rain
12:56 AM 65.8 °F 64.4 °F 95% 29.80 in 5.0 mi ESE 4.6 mph - 0.16 in Rain Rain
1:06 AM 66.2 °F 64.4 °F 94% 29.79 in 2.8 mi Calm Calm - N/A Rain Heavy Rain
1:11 AM 66.2 °F 64.4 °F 94% 29.79 in 3.0 mi Calm Calm - N/A Rain Rain
1:56 AM 65.5 °F 64.0 °F 95% 29.77 in 5.0 mi Calm Calm - 0.22 in Rain Rain
2:21 AM 66.2 °F 64.4 °F 94% 29.77 in 7.0 mi Calm Calm - N/A Rain Light Rain
2:26 AM 66.2 °F 64.4 °F 94% 29.76 in 9.0 mi Calm Calm - N/A Rain Light Rain
2:28 AM 66.2 °F 64.4 °F 94% 29.76 in 9.0 mi Calm Calm - N/A   Mostly Cloudy
2:56 AM 64.9 °F 63.7 °F 96% 29.74 in 7.0 mi Calm Calm - 0.14 in   Mostly Cloudy
3:50 AM 64.4 °F 64.4 °F 100% 29.73 in 7.0 mi Calm Calm - N/A   Partly Cloudy
3:56 AM 64.6 °F 63.3 °F 96% 29.73 in 5.0 mi Calm Calm - N/A   Partly Cloudy
4:41 AM 64.4 °F 62.6 °F 94% 29.73 in 2.0 mi Calm Calm - N/A   Scattered Clouds
4:45 AM 64.4 °F 62.6 °F 94% 29.73 in 1.9 mi Calm Calm - N/A   Light Drizzle
4:50 AM 64.4 °F 62.6 °F 94% 29.73 in 4.0 mi Calm Calm - N/A Rain Light Rain
4:56 AM 64.9 °F 63.7 °F 96% 29.73 in 6.0 mi Calm Calm - 0.00 in Rain Light Rain
5:26 AM 64.4 °F 64.4 °F 100% 29.73 in 3.0 mi Calm Calm - N/A Rain Light Rain
5:41 AM 64.4 °F 64.4 °F 100% 29.73 in 5.0 mi Calm Calm - N/A Rain Light Rain
5:56 AM 64.9 °F 63.7 °F 96% 29.73 in 5.0 mi Calm Calm - 0.03 in Rain Light Rain
6:11 AM 64.4 °F 64.4 °F 100% 29.73 in 4.0 mi Calm Calm - N/A Rain Light Rain
6:26 AM 64.4 °F 64.4 °F 100% 29.72 in 3.0 mi Calm Calm - N/A Rain Light Rain
6:56 AM 65.1 °F 63.9 °F 96% 29.73 in 4.0 mi Calm Calm - 0.03 in Rain Light Rain
7:51 AM 66.2 °F 64.4 °F 94% 29.73 in 3.0 mi Calm Calm - N/A Rain Light Rain
7:56 AM 65.5 °F 64.2 °F 96% 29.73 in 4.0 mi Calm Calm - 0.05 in Rain Light Rain
8:01 AM 66.2 °F 64.4 °F 94% 29.73 in 5.0 mi Calm Calm - N/A Rain Light Rain
8:21 AM 66.2 °F 64.4 °F 94% 29.73 in 6.0 mi Calm Calm - N/A Rain Light Rain
8:36 AM 66.2 °F 64.4 °F 94% 29.73 in 7.0 mi ESE 3.5 mph - N/A Rain Light Rain
8:51 AM 66.2 °F 64.4 °F 94% 29.73 in 7.0 mi ESE 3.5 mph - N/A Rain Light Rain
8:56 AM 65.8 °F 64.6 °F 96% 29.73 in 7.0 mi ESE 4.6 mph - 0.03 in Rain Light Rain
9:06 AM 66.2 °F 64.4 °F 94% 29.73 in 8.0 mi ESE 3.5 mph - N/A Rain Light Rain
9:11 AM 66.2 °F 64.4 °F 94% 29.73 in 8.0 mi ESE 3.5 mph - N/A Rain Light Rain
9:16 AM 66.2 °F 64.4 °F 94% 29.73 in 7.0 mi SE 3.5 mph - N/A Rain Light Rain
9:41 AM 66.2 °F 64.4 °F 94% 29.72 in 8.0 mi ESE 3.5 mph - N/A Rain Light Rain
9:56 AM 65.8 °F 64.6 °F 96% 29.70 in 10.0 mi Calm Calm - 0.07 in Rain Light Rain
10:31 AM 66.2 °F 64.4 °F 94% 29.69 in 10.0 mi Calm Calm - N/A Rain Light Rain
10:49 AM 66.2 °F 64.4 °F 94% 29.69 in 10.0 mi ESE 5.8 mph - N/A   Overcast
10:56 AM 65.5 °F 64.0 °F 95% 29.69 in 10.0 mi ESE 4.6 mph - 0.02 in   Overcast
11:16 AM 66.2 °F 64.4 °F 94% 29.70 in 10.0 mi ESE 3.5 mph - N/A   Overcast
11:26 AM 66.2 °F 64.4 °F 94% 29.69 in 10.0 mi ENE 3.5 mph - N/A   Overcast
11:46 AM 66.2 °F 64.4 °F 94% 29.68 in 10.0 mi East 3.5 mph - N/A   Overcast
11:56 AM 66.2 °F 64.8 °F 95% 29.69 in 10.0 mi NE 3.5 mph - N/A   Overcast
12:29 PM 66.2 °F 64.4 °F 94% 29.68 in 10.0 mi Calm Calm - N/A Rain Light Rain
12:56 PM 66.2 °F 64.8 °F 95% 29.68 in 10.0 mi Calm Calm - 0.01 in Rain Light Rain
12:57 PM 66.2 °F 64.4 °F 94% 29.68 in 10.0 mi Calm Calm - N/A   Overcast
1:00 PM 66.2 °F 64.4 °F 94% 29.67 in 10.0 mi Calm Calm - N/A   Light Drizzle
1:20 PM 66.2 °F 64.4 °F 94% 29.67 in 2.8 mi East 3.5 mph - N/A Rain Rain
1:25 PM 66.2 °F 64.4 °F 94% 29.67 in 4.0 mi Calm Calm - N/A Rain Light Rain
1:40 PM 66.2 °F 64.4 °F 94% 29.66 in 5.0 mi Calm Calm - N/A Rain Rain
1:45 PM 66.2 °F 64.4 °F 94% 29.66 in 4.0 mi Calm Calm - N/A Rain Heavy Rain
1:56 PM 65.1 °F 63.7 °F 95% 29.67 in 3.0 mi NW 9.2 mph - 0.19 in Rain Heavy Rain
2:01 PM 64.4 °F 64.4 °F 100% 29.67 in 3.0 mi NNW 5.8 mph - N/A Rain Heavy Rain
2:11 PM 64.4 °F 62.6 °F 94% 29.67 in 3.0 mi ENE 3.5 mph - N/A Rain Rain
2:21 PM 64.4 °F 62.6 °F 94% 29.66 in 7.0 mi Calm Calm - N/A Rain Light Rain
2:56 PM 63.9 °F 62.4 °F 95% 29.66 in 10.0 mi NNE 4.6 mph - 0.18 in Rain Light Rain
3:01 PM 64.4 °F 62.6 °F 94% 29.66 in 10.0 mi NNE 5.8 mph - N/A Rain Light Rain
3:02 PM 64.4 °F 62.6 °F 94% 29.66 in 10.0 mi NNE 5.8 mph - N/A Rain Light Rain
3:06 PM 64.4 °F 62.6 °F 94% 29.66 in 10.0 mi Calm Calm - N/A   Overcast
3:56 PM 62.4 °F 59.7 °F 91% 29.66 in 10.0 mi NNE 4.6 mph - 0.00 in   Overcast
3:57 PM 62.6 °F 59.0 °F 88% 29.66 in 10.0 mi NNE 4.6 mph - N/A Rain Light Rain
4:12 PM 62.6 °F 59.0 °F 88% 29.65 in 7.0 mi NNE 3.5 mph - N/A Rain Light Rain
4:26 PM 62.6 °F 59.0 °F 88% 29.65 in 9.0 mi North 5.8 mph - N/A Rain Rain
4:46 PM 60.8 °F 59.0 °F 94% 29.66 in 10.0 mi North 4.6 mph - N/A Rain Light Rain
4:56 PM 61.5 °F 59.5 °F 93% 29.67 in 6.0 mi North 3.5 mph - 0.08 in Rain Rain
5:26 PM 60.8 °F 59.0 °F 94% 29.70 in 9.0 mi North 8.1 mph - N/A Rain Rain
5:31 PM 60.8 °F 59.0 °F 94% 29.70 in 10.0 mi North 3.5 mph - N/A Rain Light Rain
5:34 PM 60.8 °F 59.0 °F 94% 29.70 in 10.0 mi NNE 4.6 mph - N/A Rain Light Rain
5:54 PM 60.8 °F 59.0 °F 94% 29.69 in 10.0 mi NNE 4.6 mph - N/A Rain Light Rain
5:56 PM 60.4 °F 58.1 °F 92% 29.69 in 10.0 mi NNE 3.5 mph - 0.05 in Rain Light Rain
6:09 PM 60.8 °F 57.2 °F 88% 29.70 in 10.0 mi Calm Calm - N/A   Clear
6:26 PM 60.8 °F 59.0 °F 94% 29.70 in 10.0 mi NNW 4.6 mph - N/A   Light Drizzle
6:30 PM 60.8 °F 59.0 °F 94% 29.71 in 10.0 mi NNW 3.5 mph - N/A   Partly Cloudy
6:56 PM 60.4 °F 57.7 °F 91% 29.72 in 10.0 mi North 5.8 mph - 0.00 in   Scattered Clouds
7:46 PM 60.8 °F 57.2 °F 88% 29.74 in 10.0 mi North 3.5 mph - N/A   Mostly Cloudy
7:51 PM 60.8 °F 57.2 °F 88% 29.74 in 10.0 mi Calm Calm - N/A   Mostly Cloudy
7:56 PM 60.3 °F 57.6 °F 91% 29.74 in 10.0 mi North 4.6 mph - N/A   Mostly Cloudy
8:01 PM 60.8 °F 57.2 °F 88% 29.74 in 10.0 mi North 4.6 mph - N/A   Overcast
8:16 PM 60.8 °F 57.2 °F 88% 29.75 in 10.0 mi North 3.5 mph - N/A   Mostly Cloudy
8:36 PM 59.0 °F 55.4 °F 88% 29.77 in 10.0 mi Calm Calm - N/A   Overcast
8:56 PM 59.2 °F 55.9 °F 89% 29.78 in 10.0 mi North 4.6 mph - N/A   Overcast
9:26 PM 59.0 °F 55.4 °F 88% 29.80 in 10.0 mi NNW 3.5 mph - N/A   Overcast
9:56 PM 58.8 °F 54.3 °F 85% 29.81 in 10.0 mi NNW 4.6 mph - N/A   Overcast
10:56 PM 58.5 °F 53.2 °F 83% 29.82 in 10.0 mi North 6.9 mph - N/A   Overcast
11:56 PM 58.6 °F 54.1 °F 85% 29.85 in 10.0 mi NNW 3.5 mph - N/A   Overcast